Location: Bottens
(46.6171°N, 6.6605°E)
Time: 14:01:45
(UTC+00:00)

ATLAS 5 CENTAUR R/B - Pass Details

Date: 04 November 2021
Orbit: 497 x 1159 km, 63.4° (Epoch: 25 November)

Event Time Altitude Azimuth Distance (km) Brightness Sun altitude
Rises 19:32:13 0° 323° (NW) 3,047 5.8 -34.3°
Reaches altitude 10° 19:34:52 10° 339° (NNW) 2,240 4.8 -34.8°
Enters shadow 19:35:46 14° 347° (NNW) 2,024 4.4 -34.9°
